SCOUT G-1 DEB, 15950

Orbit data source: Space-Track

SCOUT G-1 DEB, 15950 is space debris in LEO originally from a launch on Sat, 03 Aug 1985 UTC launched from the Air Force Western Test Range (AFWTR). Debris objects in space refer to the collection of defunct objects orbiting the Earth. Examples of debris include non-operational satellites, rocket bodies, and fragments generated from explosions, collisions, or faulty payload assembly.

Loading next visibility...
Identifier
15950, 1985-066D
Orbit
LEO
Country
Flag of USUS
Related business
Manufacturer
Unknown
Mission
Spacecraft
Bus & Motor
Unknown
Mass
Unknown
Launch date (UTC)
1985-08-03 (41 years ago)
Launch vehicle
Unknown
Launch site
Air Force Western Test Range (AFWTR)
Object type
Payload
Rocket body
Debris
Shape & HBR
Unknown shape, 0.1 m
Radar Cross Section
Medium (>0.1 m² and <1 m²)

Expand to show TLE details & history
Last TLE update: 2 days ago

TLE from 2 days ago
0 SCOUT G-1 DEB
1 15950U 85066D   26171.32106822  .00006103  00000-0  28800-2 0  9996
2 15950  89.8356 293.8976 0082321 194.3804 165.5043 14.17956563 43503
Epoch: 2026-06-20T07:42Z
TLE epoch observation values (Epoch: 2026-06-20T07:42:20.294Z)
Latitude
0.00004°
Longitude
-90.22433°
Altitude
892.834 km
Speed
7.376 km/s
True Right ascension
19h 35m 35s
True Declination
0° 00' 00"
Sunlit
Object was in full shadow at epoch
Visualization orbit readout
Latitude
Unknown
Longitude
Unknown
Altitude
Unknown
Speed
Unknown
Apparent Right ascension
Unknown
Apparent Declination
Unknown
Sunlit
N/A
Visualization observer readout
Local Sidereal Time
23:08:34
Azimuth
Unknown
Elevation
Unknown
Doppler factor
Unknown
Orbital elements
Apogee altitude
888.555 km
Perigee altitude
769.891 km
Semi-major axis
7,207.36 km
Eccentricity
0.00823
Inclination
89.8356°
RAAN
293.8976°
Arg. of periapsis
194.3804°
True anomaly
165.73809°
Mean anomaly
165.5043°
Eccentric anomaly
165.62143°
Mean motion
3.54714 °/min
Orbital period
101.49 mins
BSTAR
0.00288
Loading maneuver chart data...
Computing Atmospheric mass density...
Loading historical data...
Loading historical data...
Loading historical data...
Loading historical data...
Loading historical data...
Loading historical data...
Loading historical data...

Documentation

Showing up to 5 results
|